Home > Weather > Almaty > Past weeks

Flag for Kazakhstan Weather for the Past 2 Weeks in Almaty, Kazakhstan

Now
45 °F

Scattered clouds.


Feels Like: 43 °F
Forecast: 24 / 54 °F
Wind: 3 mph from Northeast

Location: Almaty Airport

Current Time: Feb 7, 2016 at 4:36:44 PM

Latest Report: Feb 7, 2016 at 4:00 PM


Visibility: 2 mi

Pressure: 29.92 "Hg (27.17 "Hg at 790m altitude)

Humidity: 49%

Dew point: 27 °F

Location of AlmatyLocation

Historic Weather in Almaty — Graph

°F

Almaty Temperature Yesterday

Maximum temperature yesterday: 46 °F (at 4:30 PM)
Minimum temperature yesterday: 19 °F (at 6:30 AM)
Average temperature yesterday: 31 °F

High & Low Weather Summary for the Past Weeks

 TemperatureHumidityPressure
High46 °F (Feb 6, 4:30 PM)100% (Jan 27, 9:30 PM)30.54 "Hg (Jan 27, 9:30 PM)
Low12 °F (Jan 24, 7:00 AM)32% (Feb 6, 4:30 PM)29.80 "Hg (Jan 26, 2:30 PM)
Average27 °F79%30.22 "Hg
* Reported Jan 23 3:00 PM — Feb 7 3:30 PM, Almaty, Weather by CustomWeather, © 2016

Note: Actual official high and low records may vary slightly from our data, if they occured in-between our weather recording intervals... More about our weather records

Advertising

Almaty Weather History for the Previous 24 Hours

 ConditionsComfort  
Time TempWeatherWind HumidityBarometerVisibility
3:30 PM
Sun, Feb 7
45 °FScattered clouds.3 mph49%29.92 "Hg2 mi
3:00 PM45 °FPassing clouds.3 mph49%29.92 "Hg1 mi
2:30 PM43 °FPassing clouds.6 mph53%29.92 "Hg2 mi
2:00 PM43 °FPassing clouds.6 mph49%29.92 "Hg2 mi
1:30 PM43 °FScattered clouds.3 mph53%29.92 "Hg2 mi
1:00 PM43 °FScattered clouds.1 mph49%29.95 "Hg2 mi
12:30 PM39 °FScattered clouds.1 mph56%29.95 "Hg2 mi
12:00 PM37 °FScattered clouds.3 mph56%29.95 "Hg2 mi
11:30 AM36 °FScattered clouds.3 mph65%29.95 "Hg2 mi
11:00 AM34 °FScattered clouds.3 mph65%29.95 "Hg1 mi
10:30 AM32 °FIce fog.3 mph64%29.98 "Hg1 mi
10:00 AM28 °FIce fog.1 mph74%29.98 "Hg1 mi
9:30 AM28 °FIce fog.1 mph74%29.98 "Hg1 mi
9:00 AM23 °FIce fog.1 mph86%29.98 "Hg1 mi
8:30 AM21 °FIce fog.3 mph86%29.95 "Hg1 mi
8:00 AM21 °FIce fog.6 mph86%29.95 "Hg1 mi
7:30 AM21 °FIce fog.3 mph86%29.95 "Hg1 mi
7:00 AM23 °FIce fog.1 mph80%29.95 "Hg1 mi
6:00 AM21 °FIce fog.1 mph86%29.98 "Hg1 mi
5:30 AM21 °FIce fog.6 mph86%29.98 "Hg1 mi
5:00 AM21 °FIce fog.3 mph86%29.98 "Hg1 mi
4:30 AM23 °FIce fog.1 mph80%29.98 "Hg1 mi
4:00 AM23 °FIce fog.3 mph80%29.98 "Hg1 mi
3:00 AM25 °FIce fog.1 mph80%30.01 "Hg1 mi
2:30 AM25 °FIce fog.6 mph80%30.01 "Hg1 mi
2:00 AM27 °FIce fog.6 mph74%30.01 "Hg1 mi
1:30 AM27 °FIce fog.6 mph80%30.04 "Hg1 mi
1:00 AM27 °FIce fog.6 mph80%30.07 "Hg1 mi
12:30 AM28 °FIce fog.6 mph74%30.07 "Hg1 mi
12:00 AM28 °FIce fog.6 mph80%30.07 "Hg1 mi
11:30 PM
Sat, Feb 6
28 °FIce fog.6 mph80%30.07 "Hg1 mi
11:00 PM28 °FIce fog.3 mph80%30.09 "Hg1 mi
10:30 PM30 °FIce fog.3 mph75%30.09 "Hg1 mi
10:00 PM30 °FIce fog.8 mph75%30.12 "Hg1 mi
9:30 PM32 °FIce fog.8 mph69%30.12 "Hg1 mi
9:00 PM32 °FIce fog.6 mph69%30.12 "Hg1 mi
8:30 PM32 °FPassing clouds.8 mph69%30.12 "Hg1 mi
8:00 PM34 °FPassing clouds.6 mph65%30.15 "Hg1 mi
7:30 PM34 °FPassing clouds.6 mph70%30.15 "Hg1 mi
7:00 PM36 °FPassing clouds.3 mph60%30.15 "Hg1 mi
6:30 PM36 °FPassing clouds.6 mph65%30.15 "Hg1 mi
6:00 PM41 °FScattered clouds.3 mph45%30.15 "Hg1 mi
5:30 PM45 °FScattered clouds.1 mph39%30.15 "Hg2 mi
5:00 PM45 °FPassing clouds.3 mph46%30.15 "Hg2 mi
4:30 PM46 °FPassing clouds.1 mph32%30.15 "Hg2 mi
4:00 PM45 °FPassing clouds.1 mph37%30.15 "Hg2 mi
Weather by CustomWeather, © 2016

See weather overviewHow to use our weather pages